Theta_e
330 334 337 339 339 339 341 343 345 346 346 348 349 349 349 347 341 341 348 352 352 352 353 354 355 358 357 356 354 350 349 349 349 350 351 351 351 350 350 351 353 353 353 351 349 347 347 348 348 349 350 350 351 352 352 352 353 354 354 354 356 356 356 356 355 356 356 356 357 357 357 357 356 356 355 354 354 353 354 353 352 352 353 353 353 353 353
332 334 333 339 343 340 340 342 343 346 346 346 347 347 348 348 347 346 348 349 352 351 349 349 352 352 351 349 348 348 349 349 349 350 351 352 351 351 351 352 351 350 350 349 347 347 348 348 349 349 350 350 351 351 352 353 353 353 353 354 355 355 355 355 355 354 352 351 352 354 355 355 355 354 355 355 355 354 354 353 353 353 353 353 353 353 353
330 335 336 337 339 339 339 339 341 346 347 345 346 346 346 348 347 345 346 349 351 348 346 348 349 348 348 348 347 349 349 349 350 350 350 350 351 351 351 350 349 347 348 348 346 346 348 348 349 349 349 350 350 351 351 353 353 352 352 352 352 353 354 354 354 353 351 349 349 349 350 350 351 352 353 353 354 354 354 353 353 353 353 353 353 353 353
328 331 335 335 337 338 340 340 339 344 350 347 345 345 344 347 348 345 348 352 351 347 345 347 347 346 348 349 350 350 349 349 350 350 350 349 349 349 349 349 348 347 347 346 345 346 347 348 348 348 348 349 349 349 351 351 351 351 350 350 350 350 351 351 351 350 350 350 349 349 350 350 349 351 351 350 351 352 352 351 350 351 352 353 352 352 352
326 330 334 336 338 337 340 343 337 340 349 346 343 344 343 343 345 347 351 353 348 345 346 347 347 346 347 348 349 350 350 350 350 350 350 349 348 348 347 347 347 346 345 345 344 345 346 347 347 347 347 348 347 348 348 349 350 350 349 349 349 349 350 350 350 350 349 349 349 349 351 351 350 350 349 349 349 349 350 350 349 350 351 352 352 352 352
325 335 338 336 339 339 340 343 338 339 348 346 344 345 343 342 343 344 347 347 345 345 346 346 346 346 345 344 344 345 348 349 349 349 348 348 347 346 345 345 345 344 344 344 343 344 346 346 346 347 346 347 347 348 348 348 348 349 348 348 349 349 350 351 351 350 350 349 349 350 351 351 350 349 350 350 349 349 349 349 349 349 349 350 351 352 352
328 340 341 336 340 342 341 341 340 341 344 343 344 344 341 342 342 342 343 343 344 345 345 344 344 342 341 341 340 341 343 346 348 348 347 347 346 345 345 344 344 343 344 344 344 345 346 346 346 346 346 346 347 348 348 348 348 348 347 348 348 349 350 351 350 350 349 347 348 350 350 351 351 350 351 351 351 350 349 348 348 349 349 349 350 350 350
328 337 340 336 337 340 341 341 339 339 341 340 341 343 343 342 343 344 344 342 343 344 343 343 343 341 340 341 340 340 340 342 345 345 345 346 345 345 344 343 343 343 343 344 344 345 345 346 346 346 346 346 347 347 348 348 348 347 347 347 347 347 349 350 349 349 348 347 348 350 349 350 351 350 350 350 351 351 351 350 349 348 347 348 349 348 348
332 337 338 337 337 338 340 340 336 337 338 337 341 349 349 343 341 345 345 342 343 344 344 344 343 342 343 343 342 340 339 339 341 342 342 343 343 343 344 343 343 344 344 344 344 344 344 344 345 345 345 346 346 346 346 346 346 345 344 344 344 345 346 347 348 349 349 349 349 349 349 350 350 350 350 350 351 351 351 351 350 348 348 348 349 349 349
337 343 338 336 340 341 340 341 341 337 335 337 343 352 354 345 341 343 345 344 343 343 344 345 344 344 346 345 343 341 339 338 339 339 340 340 340 341 341 341 342 342 342 343 342 342 342 342 342 343 343 344 344 344 344 343 343 343 342 342 343 343 343 344 345 347 348 349 349 349 350 349 349 349 349 349 349 349 349 348 347 347 350 350 350 350 350
335 344 341 338 341 341 341 347 348 338 334 336 338 342 350 349 343 342 344 345 344 343 344 343 344 347 348 345 341 341 339 338 337 338 339 339 338 338 338 338 339 339 339 340 341 340 340 340 340 340 341 341 341 341 341 341 341 341 341 341 341 341 341 341 342 343 345 346 347 347 348 348 348 348 348 348 348 348 348 348 347 348 351 350 348 349 350
339 344 341 338 339 338 339 346 347 339 334 333 332 337 347 351 346 343 343 344 344 343 342 342 343 347 346 343 340 340 339 337 335 335 336 336 336 336 335 335 336 337 337 337 337 337 336 337 338 338 338 338 338 338 339 339 339 340 339 339 340 340 340 340 340 341 342 343 344 344 344 345 345 346 347 347 347 348 348 348 348 348 348 347 346 347 348
344 343 338 335 338 340 340 341 343 339 331 327 332 341 348 350 348 344 342 343 342 341 341 341 340 340 340 340 341 340 337 335 334 333 332 332 333 334 333 334 334 335 335 334 333 333 333 334 335 335 335 336 335 337 338 337 338 339 339 340 340 340 340 340 340 341 341 341 342 342 342 342 343 343 344 344 344 345 344 345 347 347 345 344 344 344 346
336 342 344 339 337 339 339 339 340 337 331 331 340 344 344 347 347 342 340 342 342 340 341 341 339 339 340 341 342 341 338 335 333 331 330 330 331 332 332 332 332 332 332 332 331 331 331 331 331 332 333 333 332 334 336 335 336 338 338 339 339 339 339 339 338 338 339 339 340 340 340 341 341 341 341 342 342 342 342 342 343 343 341 342 342 341 341
332 342 346 340 336 335 334 334 337 336 335 338 344 343 341 343 343 340 338 339 339 339 340 339 340 341 341 340 341 342 340 336 330 328 328 329 329 330 330 330 331 331 331 330 330 330 329 329 328 328 328 329 328 329 331 333 334 335 336 336 337 339 339 339 338 338 339 339 338 339 338 339 339 339 339 339 340 340 339 339 340 340 339 339 338 337 336
337 345 346 342 341 339 335 334 338 340 339 339 342 343 343 342 340 339 338 337 336 337 340 340 340 340 339 339 339 339 338 335 328 325 326 327 327 328 329 329 329 329 329 329 329 329 329 329 327 326 327 329 328 327 329 330 332 334 335 335 336 336 336 337 338 339 339 337 336 336 336 336 336 337 337 338 338 338 337 336 337 337 336 336 336 334 332
336 343 345 343 340 338 337 338 341 342 341 339 341 343 343 342 341 340 339 337 336 336 338 340 340 339 338 339 337 336 335 332 327 324 324 325 326 327 328 327 328 328 327 327 327 327 328 328 328 327 327 328 328 328 329 329 329 331 333 334 334 334 334 335 337 339 338 337 337 336 336 335 334 334 334 334 334 334 335 335 334 333 332 333 332 330 329
334 336 336 337 337 336 338 340 340 342 342 340 340 342 343 344 343 340 338 337 337 337 337 339 340 339 340 340 338 336 334 331 325 322 323 325 326 326 327 327 326 326 325 325 325 325 326 326 326 326 327 327 326 326 326 327 328 328 330 331 333 333 333 333 335 337 337 336 335 334 334 335 335 334 333 333 332 330 331 331 330 329 329 329 328 328 328
338 339 336 336 336 336 338 340 340 341 342 340 340 341 343 342 341 339 337 336 337 337 337 340 341 340 341 343 342 340 337 332 326 322 323 325 325 325 326 326 324 324 324 324 325 325 324 324 325 325 326 326 326 325 325 324 324 324 325 326 328 331 332 332 332 333 333 332 331 331 331 333 333 333 333 333 332 331 330 329 328 328 328 328 328 327 326
340 339 335 334 333 334 337 339 341 341 341 340 340 339 339 338 338 337 334 334 338 339 339 342 343 341 342 344 345 344 340 331 325 322 323 324 325 326 326 324 324 326 326 326 326 326 325 325 325 325 325 324 324 325 325 324 323 322 321 321 323 326 330 331 331 330 330 329 328 328 328 328 328 328 330 332 333 333 333 332 331 330 329 329 328 326 324
335 332 332 333 333 333 333 335 338 339 339 340 339 338 336 337 337 337 335 334 335 337 338 339 341 342 342 340 341 345 342 331 325 324 324 324 325 325 324 324 325 327 327 327 326 325 325 325 325 324 323 322 323 325 325 324 324 324 323 322 322 325 329 331 330 330 328 326 324 322 322 323 324 325 326 328 330 331 332 333 333 332 331 331 330 328 327
337 337 336 334 335 335 333 334 337 337 337 339 340 339 338 338 338 339 339 335 332 332 332 333 338 344 341 334 332 337 335 328 325 326 325 324 325 325 324 324 325 326 326 326 325 324 324 323 323 322 321 320 322 324 324 324 324 324 324 324 323 325 328 330 329 329 326 322 319 317 316 318 320 321 321 323 325 326 327 328 329 329 329 328 326 326 325
340 339 335 334 338 338 334 334 337 335 335 340 341 339 339 339 336 336 339 338 336 335 331 329 333 339 336 331 329 331 329 326 326 326 325 324 325 325 324 324 325 325 325 324 323 323 323 322 322 323 322 321 321 322 323 324 324 323 324 324 324 324 327 328 327 326 323 320 318 317 315 314 315 315 315 315 318 319 320 320 319 319 319 318 317 317 317
336 335 333 333 337 336 332 334 338 334 331 335 340 339 338 336 332 330 334 336 336 337 335 330 330 332 331 329 329 330 329 327 327 326 325 325 325 325 325 325 325 325 324 323 322 321 322 323 324 324 323 323 322 321 322 323 323 323 323 323 324 324 323 323 323 323 323 322 322 322 320 317 316 315 313 312 313 313 313 314 314 315 315 314 314 313 312
336 334 332 330 333 336 334 333 334 329 325 329 335 335 333 331 327 327 329 330 329 331 333 330 328 330 331 330 330 330 330 329 328 326 326 325 325 325 325 325 324 324 323 322 320 320 322 323 324 324 324 323 323 321 320 321 322 323 323 322 323 324 323 322 322 323 324 324 324 324 323 321 320 319 318 316 315 314 314 315 316 316 315 314 313 314 314
335 332 331 330 331 332 331 330 331 329 325 326 331 331 328 328 327 325 325 325 325 326 327 326 327 330 331 330 331 331 332 331 331 330 329 328 328 328 327 327 326 325 324 323 321 322 323 323 323 323 322 322 322 321 321 320 320 322 323 321 320 322 323 323 323 323 324 324 324 324 323 322 321 321 320 319 318 317 317 317 316 315 315 314 314 316 316
329 329 331 332 331 329 329 330 331 327 322 322 327 328 327 327 326 324 323 324 325 325 324 324 326 328 329 330 330 330 330 330 330 330 331 330 330 330 329 329 329 328 328 327 325 323 323 323 323 322 321 321 321 321 321 322 321 321 322 321 320 321 323 323 323 323 323 324 324 324 323 322 322 322 321 320 319 318 318 318 317 316 315 314 315 317 317
328 329 330 332 332 330 328 326 325 323 320 321 323 324 323 323 324 324 325 325 324 322 322 323 325 326 325 327 327 325 325 325 324 324 325 326 326 326 327 327 327 328 329 329 328 327 325 324 323 322 320 321 321 321 321 323 322 321 321 322 322 322 322 321 321 321 322 322 323 323 322 322 323 323 323 322 320 319 318 318 318 317 316 314 314 316 318
330 333 334 333 328 325 325 324 325 327 324 321 321 322 323 325 328 329 328 325 322 320 321 322 323 324 324 324 325 323 321 320 319 319 320 319 319 320 321 323 325 326 327 328 328 328 328 326 325 323 322 322 322 322 322 323 323 322 321 320 322 323 322 321 321 321 321 321 321 321 321 321 322 323 323 323 322 320 319 318 318 317 316 315 314 315 316
332 335 337 333 327 326 328 329 330 332 327 322 323 323 320 323 329 330 326 321 318 319 320 319 320 322 322 321 322 321 319 318 318 318 317 317 316 317 317 318 321 323 325 326 326 326 327 327 327 326 326 325 324 323 323 323 323 323 321 319 319 320 321 322 322 322 322 322 320 318 318 320 320 320 321 322 323 322 320 318 317 317 317 315 314 314 315
334 334 334 331 328 328 330 329 329 330 328 324 325 324 321 323 328 328 324 319 316 316 318 318 318 319 319 318 319 319 318 318 318 317 317 317 317 317 318 319 321 324 326 327 326 325 325 326 326 326 326 326 326 325 324 323 323 323 322 321 318 317 318 320 322 322 322 320 316 313 314 318 320 319 318 319 321 323 322 320 318 318 317 316 315 315 315
333 331 330 330 328 327 328 327 327 328 326 325 325 324 321 322 324 324 323 320 317 315 316 317 316 317 317 316 317 317 316 317 317 316 316 316 316 317 318 320 322 324 325 325 324 323 323 323 324 325 325 325 325 326 325 323 322 322 322 322 320 319 318 319 321 321 320 317 315 314 314 317 319 318 317 317 319 321 322 321 319 318 318 317 316 315 315
333 331 329 329 328 328 327 325 323 323 324 323 320 318 315 315 316 317 317 316 316 316 316 316 316 316 316 316 316 316 316 315 316 315 315 316 317 317 317 317 318 318 319 320 321 321 321 321 322 323 324 324 324 324 324 324 323 322 322 322 321 321 320 320 320 320 319 316 316 317 317 317 318 318 317 317 317 319 321 322 320 318 317 316 315 313 313
331 330 328 327 326 326 325 324 322 323 323 321 316 313 313 314 314 314 314 315 315 316 316 316 316 316 315 315 315 315 315 315 315 314 314 315 316 316 316 316 315 315 316 317 317 318 319 321 322 322 322 322 323 323 323 323 323 323 323 322 321 321 321 321 320 320 318 317 317 318 317 317 318 318 317 317 317 318 320 321 319 318 317 314 312 311 311
324 325 324 321 321 321 320 319 320 322 324 324 320 315 313 314 315 315 315 315 315 314 315 315 315 315 314 314 314 314 313 313 313 313 313 314 315 315 316 316 316 315 315 315 315 316 318 320 321 321 320 320 320 321 321 322 323 323 323 323 322 321 321 321 320 319 319 318 318 318 317 317 317 317 317 316 316 317 318 319 319 318 316 313 311 311 311
323 325 324 320 319 318 316 315 316 317 317 318 317 315 314 315 315 315 315 314 314 314 314 314 314 314 314 313 313 313 313 312 312 313 313 313 313 314 314 315 315 316 315 316 317 318 318 318 317 317 317 316 317 317 318 319 320 321 321 322 322 322 321 320 319 318 318 318 317 317 317 316 316 317 316 316 316 316 317 318 319 318 315 312 310 310 310
321 322 321 318 318 318 316 315 315 315 313 313 314 314 314 314 314 314 314 314 313 313 313 313 313 313 313 313 313 312 312 311 311 311 312 312 312 312 313 314 315 315 315 317 318 317 316 315 314 314 313 314 313 314 314 316 318 320 321 321 321 321 321 321 319 319 318 317 316 315 316 316 316 316 316 315 315 315 315 316 317 316 313 310 309 309 309
319 318 318 317 316 316 315 314 314 314 314 314 314 314 313 313 313 313 313 313 313 313 312 312 312 312 312 312 312 312 311 311 311 311 311 311 311 312 312 313 313 313 314 316 317 316 314 314 313 311 311 311 311 311 311 313 316 318 320 321 321 320 320 320 320 319 319 317 314 314 316 316 315 315 315 314 314 314 314 314 315 313 311 309 309 308 308
317 316 315 315 315 315 314 314 315 315 315 314 313 313 313 313 313 312 312 312 312 312 312 312 311 312 312 312 312 311 311 311 311 312 312 312 312 312 312 312 312 314 316 317 317 315 314 313 312 311 310 310 310 310 310 311 313 315 317 319 320 320 320 319 319 319 318 315 313 314 316 316 315 314 313 313 313 313 313 313 313 311 310 309 309 308 307
315 314 313 314 314 314 314 314 314 314 314 315 314 313 313 313 312 312 311 311 311 311 311 311 311 311 312 312 312 312 312 312 312 312 312 312 312 312 311 311 311 313 316 316 315 314 312 311 311 311 311 310 310 310 310 310 312 313 315 317 319 319 319 318 318 318 317 315 313 314 316 315 314 313 312 311 311 311 312 312 312 311 309 309 308 307 307
314 313 313 314 314 314 313 313 313 313 314 314 313 313 312 312 312 311 311 310 310 310 311 311 311 312 312 312 312 312 312 312 312 312 311 311 311 311 311 311 311 312 313 313 313 312 312 311 311 311 311 311 311 311 311 311 312 314 315 316 317 318 318 317 317 317 317 314 313 314 315 313 312 312 311 310 310 310 310 310 310 309 308 307 307 306 306
313 313 313 313 313 313 313 313 312 312 312 313 312 312 312 311 311 311 311 311 311 311 311 312 312 312 312 312 312 312 312 312 311 311 311 311 312 311 311 312 312 312 312 312 312 312 311 311 311 311 311 311 311 312 312 313 314 314 315 315 315 316 317 317 316 316 315 314 312 313 313 313 312 312 311 309 309 310 309 308 307 307 307 306 306 305 305
313 313 313 313 312 312 312 312 311 311 311 311 311 311 311 311 311 311 311 311 311 312 312 312 312 311 311 311 311 311 311 311 311 311 311 311 312 312 312 312 312 311 312 312 311 311 311 311 311 311 312 311 311 311 313 314 315 316 315 315 315 315 316 316 315 314 314 313 312 313 313 313 313 311 310 309 309 309 308 307 305 305 305 305 304 304 304
314 314 313 312 312 311 311 311 310 310 310 311 311 311 311 311 311 311 311 312 311 311 311 311 310 310 311 311 310 310 310 310 310 311 311 311 311 311 311 310 310 311 310 310 310 310 310 311 311 311 311 311 311 311 312 312 313 314 314 314 313 313 313 313 312 312 312 311 311 312 312 312 311 310 308 307 307 306 305 305 304 304 304 303 303 303 303
314 314 313 312 311 311 311 311 311 311 311 310 310 311 311 311 312 312 311 311 310 310 310 309 309 309 310 310 310 310 310 310 311 311 310 310 310 309 309 309 309 309 309 309 309 309 309 310 310 310 310 310 310 310 310 310 310 310 310 310 309 309 309 308 308 307 307 308 308 308 308 308 307 306 305 305 304 304 304 304 303 303 303 302 302 302 301
314 314 313 312 311 311 311 312 311 311 311 311 310 311 312 312 311 311 310 310 309 309 309 309 309 309 309 309 310 310 310 310 310 310 309 309 308 308 308 307 307 307 307 308 308 309 309 309 309 308 308 307 307 307 307 308 308 308 308 308 308 308 307 307 306 306 305 305 305 304 304 304 304 304 304 303 303 303 302 302 302 302 301 301 301 301 300
313 313 311 311 311 311 311 311 311 310 310 310 310 310 311 311 310 310 309 309 309 309 309 308 309 309 309 309 309 310 310 310 310 309 309 308 307 307 307 306 306 306 307 307 308 308 308 308 308 307 306 305 305 305 305 305 306 306 307 307 308 308 307 307 306 305 305 304 304 304 304 303 303 303 302 302 302 302 301 301 301 301 300 300 300 300 299
312 311 311 311 311 310 310 310 310 310 310 310 310 310 310 310 309 309 309 309 309 309 308 308 308 308 308 309 309 309 309 309 309 308 308 307 306 306 306 306 306 305 305 305 306 307 307 306 306 305 304 304 304 304 304 304 305 306 306 307 307 307 306 306 305 305 305 304 304 304 304 303 303 302 302 302 301 301 301 301 300 300 299 299 299 299 299
311 311 310 310 310 310 310 310 310 310 310 310 310 310 310 309 309 309 309 308 308 308 308 308 308 308 308 308 308 308 308 308 308 308 307 306 305 305 305 305 305 304 303 302 303 305 305 304 304 303 303 303 303 303 304 304 304 305 305 305 305 305 304 304 303 304 304 304 304 303 303 302 302 302 301 301 301 300 300 299 299 299 299 298 298 298 298
310 310 310 309 310 309 309 309 309 310 310 310 310 310 310 309 309 309 308 308 308 308 308 308 308 307 307 308 307 307 307 307 306 306 306 305 305 305 305 305 305 304 302 300 301 302 303 303 302 302 302 302 302 302 303 304 304 305 304 304 304 304 303 303 302 302 302 302 301 301 301 301 301 300 300 299 299 299 299 298 298 298 298 298 298 297 297
310 309 309 309 309 309 309 309 310 310 311 310 310 310 310 309 309 308 308 308 308 308 308 308 307 307 307 307 307 306 306 306 306 306 305 305 305 305 305 304 304 303 301 299 298 299 301 302 302 302 302 301 301 301 302 302 303 303 303 303 302 302 302 302 301 301 301 301 300 300 300 300 300 299 299 299 299 298 298 298 298 298 298 297 297 297 297
310 310 309 309 309 309 309 309 309 310 310 311 310 310 310 309 309 308 308 308 308 308 307 307 307 307 306 306 306 306 306 305 305 304 304 303 304 303 303 302 302 302 300 298 297 299 300 301 302 302 302 301 301 301 302 302 302 302 302 302 302 301 301 301 301 300 300 300 300 300 299 299 299 299 299 298 298 298 298 298 297 297 297 297 297 297 297
Wind_Speed
6 8 7 5 6 4 3 5 7 8 9 10 8 4 3 2 4 2 4 7 7 6 8 8 6 5 6 6 6 6 5 6 6 5 5 5 2 2 2 3 3 5 6 6 8 11 15 19 19 20 21 20 19 19 19 20 22 24 25 26 24 21 19 19 20 21 23 25 27 29 29 28 26 25 25 25 24 24 23 23 24 23 23 24 23 23 23
4 3 3 5 8 5 4 6 6 6 7 7 7 6 5 5 6 4 4 8 8 7 8 8 7 6 6 6 7 7 6 5 4 4 4 2 4 4 4 4 4 4 5 4 5 8 13 18 21 23 24 24 23 22 23 24 25 24 24 26 29 28 25 22 20 18 15 14 15 18 22 25 25 23 24 26 26 25 25 25 25 25 25 25 25 24 23
1 2 1 4 7 7 5 4 5 6 6 5 7 7 6 5 4 2 4 6 6 6 7 8 7 6 7 8 9 8 6 4 3 3 3 0 4 3 2 1 1 4 5 6 6 7 11 16 20 22 23 24 24 24 24 25 26 24 23 24 27 29 29 27 24 22 20 16 11 9 9 9 13 15 16 21 25 27 26 25 26 27 27 27 26 25 24
1 2 2 3 4 6 5 3 6 7 6 4 4 6 5 4 2 2 3 4 2 3 6 7 7 8 9 9 8 7 4 3 2 1 2 1 2 4 4 3 2 2 3 5 6 8 12 15 18 21 21 22 23 23 25 27 27 24 22 23 26 27 27 25 22 21 23 23 20 14 8 6 8 12 14 13 16 21 24 26 26 28 29 29 28 27 26
2 4 4 3 2 3 1 2 4 2 2 2 1 3 6 4 2 1 1 0 2 1 3 5 7 8 8 7 7 6 4 2 2 1 2 3 3 4 4 5 4 3 2 4 5 8 12 14 16 18 20 22 23 22 22 23 23 20 17 17 18 19 19 20 20 21 23 24 23 21 17 12 10 12 13 12 9 10 14 19 24 28 29 29 28 27 27
2 5 1 2 3 1 3 4 3 1 3 4 3 3 5 4 2 0 2 2 2 1 5 6 5 6 6 6 7 7 5 4 3 4 5 4 4 5 5 5 5 4 3 5 4 2 6 10 14 17 18 21 21 20 19 19 18 16 14 11 10 9 8 12 15 17 19 20 19 18 17 15 13 11 11 12 12 10 8 11 17 22 25 27 26 25 25
2 1 4 3 1 4 4 3 3 0 4 6 6 4 3 3 3 1 1 3 1 3 6 5 3 3 5 7 7 7 7 6 5 5 6 6 5 5 5 5 5 5 5 6 7 6 8 11 14 18 18 19 20 19 19 19 19 18 16 15 12 8 6 7 9 11 11 12 14 15 14 14 16 16 15 15 16 16 14 13 13 15 18 20 21 21 21
0 2 4 2 4 5 4 4 2 1 1 2 2 1 1 3 3 2 1 3 1 4 4 2 2 1 2 6 7 7 7 8 8 7 6 6 6 6 5 5 5 7 9 9 9 9 10 12 15 19 19 19 19 18 18 19 18 17 15 13 12 10 7 7 7 7 8 9 10 12 12 13 15 16 14 14 13 13 15 16 15 14 14 13 14 16 17
1 2 1 1 2 3 3 2 2 2 2 1 1 1 2 1 2 3 1 1 1 3 1 1 1 2 2 6 6 7 6 7 8 8 7 7 8 7 7 7 7 9 11 12 12 12 12 13 15 17 17 18 19 17 16 15 15 13 10 9 8 7 6 5 6 7 7 8 10 11 11 12 13 13 12 12 11 9 10 12 12 13 13 13 14 15 16
2 4 2 2 2 2 4 5 4 2 3 4 4 3 2 3 3 3 2 1 1 1 2 3 4 3 4 5 4 7 7 5 6 8 8 11 12 11 11 12 13 15 16 15 16 17 17 17 15 15 15 17 18 17 15 14 13 13 12 10 9 8 6 5 5 6 7 8 9 9 9 9 10 11 11 12 14 13 12 12 11 13 15 17 15 13 14
2 4 3 2 2 4 5 6 6 4 3 2 4 5 4 4 4 4 3 3 1 1 1 3 3 3 4 1 3 5 6 6 4 7 8 12 14 14 13 14 15 16 17 18 19 21 22 20 18 18 18 18 18 16 13 13 14 15 14 11 9 8 7 6 4 4 5 5 6 6 6 7 9 9 8 9 11 13 14 15 15 15 18 18 13 10 11
2 3 2 2 3 3 3 5 6 5 1 3 6 3 5 5 4 4 4 4 3 2 1 2 4 3 3 3 2 3 4 5 7 8 10 12 14 14 14 15 16 16 17 19 19 20 20 19 18 18 18 18 17 15 13 14 15 16 15 13 12 11 10 8 7 5 4 4 4 4 5 7 8 8 8 7 7 9 11 13 16 17 18 17 13 11 12
2 3 2 2 3 3 4 5 5 4 2 5 4 3 6 4 4 4 4 4 4 3 2 3 3 1 2 4 2 2 4 5 7 10 14 15 15 14 13 14 16 18 18 19 19 17 16 17 17 17 17 18 17 15 13 13 12 13 14 13 13 13 12 11 10 8 7 5 2 1 0 3 4 4 5 5 4 4 3 6 11 15 13 11 11 11 12
1 2 2 1 3 3 4 3 3 1 3 2 4 5 3 3 4 2 2 4 4 4 4 4 3 2 2 4 3 3 4 5 5 8 11 14 13 14 14 14 15 16 16 17 18 16 14 15 16 16 18 19 18 16 13 12 11 10 10 10 11 12 12 12 12 10 9 7 5 5 5 3 2 3 3 3 4 2 4 6 9 12 10 8 9 8 7
1 2 2 1 1 4 3 2 1 1 2 4 5 1 2 2 3 3 3 3 3 5 5 5 4 4 5 4 4 4 4 4 4 6 8 10 10 12 13 12 12 14 14 14 15 14 13 14 15 15 17 19 20 19 14 10 9 9 8 9 10 10 11 11 9 8 8 7 7 8 8 6 5 7 8 8 9 8 8 11 12 11 9 8 7 5 5
2 2 1 2 4 4 3 1 3 2 2 3 3 2 3 2 3 3 3 3 3 4 6 6 5 6 5 4 5 5 5 5 6 6 6 8 10 12 12 12 13 15 15 14 14 13 12 13 14 14 14 16 19 18 12 8 8 8 8 9 10 10 10 8 7 7 8 9 9 10 9 7 8 10 11 10 11 10 10 12 13 12 9 7 6 6 8
3 4 4 5 4 3 3 1 2 0 2 1 2 3 3 2 2 2 3 4 4 4 6 6 6 5 4 5 5 6 6 6 6 6 6 9 11 13 13 13 15 16 17 16 16 15 13 13 14 14 15 16 16 14 9 7 7 7 7 8 9 10 10 9 8 8 9 9 9 8 7 8 10 12 12 12 12 11 10 11 12 11 10 8 7 8 9
1 2 1 1 1 2 3 3 2 2 3 3 3 4 4 2 2 3 4 4 4 4 4 6 6 4 4 6 6 6 6 6 6 7 9 10 12 14 14 14 15 16 16 17 17 16 14 13 13 13 14 15 15 12 10 9 8 6 6 7 8 10 10 9 9 8 8 8 7 6 6 7 8 9 10 11 13 13 12 12 12 11 11 11 10 9 8
2 1 2 2 1 2 2 3 3 3 4 4 3 4 3 2 3 4 5 5 5 4 4 6 6 4 4 5 6 5 5 6 6 8 10 10 12 14 14 14 14 15 16 15 15 15 14 12 11 11 11 12 11 10 9 9 8 7 6 6 7 8 9 9 9 8 8 8 7 7 7 7 7 7 7 7 9 11 12 12 12 12 11 10 9 8 7
2 3 5 4 2 2 2 3 2 2 4 4 4 4 3 4 5 4 4 5 5 3 3 5 6 4 3 5 5 4 5 5 6 9 11 12 13 14 14 15 15 15 14 13 12 12 12 10 9 9 9 8 7 6 6 6 6 6 6 5 6 7 9 9 8 8 8 8 7 7 8 8 8 8 8 7 8 9 9 9 9 10 10 9 8 7 7
2 1 2 1 4 4 5 3 1 1 3 5 5 4 5 6 6 6 5 4 4 5 5 4 6 5 3 3 5 5 4 5 6 9 11 13 14 14 13 13 14 14 13 12 11 11 10 9 8 7 7 6 4 4 4 4 3 3 4 4 5 8 11 11 9 8 8 7 6 6 7 7 8 10 10 10 9 9 8 7 6 6 7 7 6 5 4
2 4 4 4 3 1 1 2 3 2 3 5 6 5 5 6 6 6 6 5 4 5 6 6 7 6 3 3 5 5 4 5 8 10 13 14 13 13 12 11 11 11 11 10 10 10 9 7 6 6 5 5 4 4 4 3 2 2 2 3 5 8 11 11 11 10 8 6 5 5 5 6 7 9 10 10 10 10 10 9 7 6 5 6 6 4 2
5 7 7 6 5 3 4 5 5 4 3 5 6 5 5 5 5 6 7 6 5 5 5 6 8 7 5 6 7 6 5 6 8 10 13 15 14 13 13 12 11 10 9 8 7 7 7 5 4 4 5 5 5 4 4 4 3 3 2 3 5 7 9 10 11 10 8 7 7 7 7 7 7 8 9 9 9 9 9 8 7 6 5 5 4 3 1
3 5 8 7 4 5 6 6 6 4 4 5 6 4 4 4 4 6 6 6 6 5 5 5 7 9 9 10 10 8 7 7 9 10 11 13 13 12 12 12 11 10 9 7 5 5 4 3 2 2 3 4 4 4 3 3 3 3 2 3 5 7 9 10 10 9 9 9 9 9 8 8 8 8 9 10 10 9 9 8 8 7 6 6 5 5 4
2 5 7 5 4 5 5 4 4 4 5 6 5 4 4 5 6 8 8 6 7 8 7 6 7 8 10 10 11 10 8 7 8 9 9 8 8 8 7 7 8 8 7 6 4 3 2 1 1 2 2 3 4 4 5 3 1 2 1 2 4 5 7 9 9 9 9 9 8 8 8 8 8 7 8 9 10 10 10 9 8 8 8 9 9 8 7
4 7 8 6 4 4 5 5 4 3 6 8 7 5 7 10 11 12 12 11 11 13 12 11 11 11 12 12 11 11 10 9 8 8 8 7 4 2 1 1 3 3 3 4 5 4 3 3 3 4 4 5 6 6 6 6 5 3 1 2 3 4 5 7 7 8 8 8 7 7 7 6 6 6 6 7 8 10 10 9 8 8 8 9 10 9 9
6 10 11 8 4 2 4 5 5 6 8 11 10 8 10 15 16 15 14 14 14 16 16 16 16 16 16 16 15 15 15 14 14 13 13 12 10 8 7 6 5 5 5 5 5 6 6 5 5 5 6 6 6 7 7 7 7 6 4 2 3 3 4 5 6 6 7 7 7 7 7 7 7 8 7 7 8 8 8 8 7 7 8 9 9 10 10
7 8 8 8 8 8 6 5 8 9 9 11 13 12 13 15 14 12 11 10 12 14 15 16 18 18 16 16 16 16 16 16 15 15 14 13 12 11 10 10 9 8 7 6 6 5 6 7 8 8 7 7 7 8 8 7 7 6 5 4 4 4 4 5 5 6 7 7 6 7 7 6 7 8 9 9 10 10 9 8 8 7 7 8 9 9 11
7 4 3 4 8 9 7 7 8 7 7 10 13 14 13 11 8 7 6 6 9 11 11 13 16 17 15 14 14 14 14 14 13 12 12 11 10 10 10 9 9 9 8 7 7 7 6 6 8 10 10 9 9 9 10 9 8 6 5 5 7 8 8 7 7 6 6 7 6 7 7 6 6 7 8 9 11 12 12 11 9 8 8 9 8 8 9
4 4 5 6 7 9 9 7 7 6 6 8 9 9 9 9 8 5 4 6 8 9 9 12 15 14 14 14 13 12 12 11 10 9 9 8 8 9 9 8 7 8 8 8 8 8 7 6 7 9 10 10 10 11 12 11 10 8 6 6 8 10 10 10 9 8 8 8 9 9 10 9 8 7 7 8 10 12 13 13 12 10 9 9 8 6 7
4 5 8 7 7 9 9 7 6 5 5 7 8 7 7 9 8 6 5 6 8 9 11 14 15 14 13 13 11 10 9 9 8 8 8 8 7 7 7 7 6 6 7 7 7 8 8 8 8 9 10 10 10 10 11 13 13 11 9 8 9 10 11 11 10 10 10 9 9 9 11 12 10 7 7 8 9 11 14 15 14 12 10 9 7 5 4
7 7 7 7 6 7 7 6 6 6 5 6 8 7 7 8 9 7 6 6 8 11 13 14 13 12 12 10 8 8 7 7 6 7 7 7 6 6 6 6 6 6 6 6 6 7 8 8 9 9 9 8 9 9 10 12 14 13 12 11 10 11 12 12 12 11 11 10 8 7 9 11 11 8 8 9 10 12 14 15 16 15 12 10 8 5 3
9 6 6 7 7 7 6 5 6 7 6 6 8 8 9 11 12 10 9 10 11 12 12 11 10 9 9 7 6 6 5 5 5 6 6 5 5 4 5 5 5 5 5 5 5 6 6 6 7 8 8 8 8 9 9 10 13 13 14 13 13 12 13 14 14 13 12 11 11 9 8 10 11 10 9 10 11 13 14 16 17 17 13 10 8 6 4
11 10 10 11 10 9 9 7 6 6 5 5 7 9 11 13 14 13 13 14 13 12 11 11 11 10 9 8 7 7 6 5 5 7 7 6 4 3 3 3 4 4 3 3 4 4 4 5 5 6 8 9 9 9 9 9 11 13 14 14 14 14 14 15 16 16 15 15 14 12 10 10 11 12 12 12 12 13 15 17 18 18 15 12 9 7 5
11 8 9 10 10 10 11 10 8 8 7 6 6 8 11 14 15 15 15 15 13 12 12 12 12 10 10 9 8 8 8 7 6 7 7 6 5 4 3 2 2 2 2 3 3 3 4 4 5 6 7 8 9 9 9 9 10 12 14 15 16 15 15 16 17 18 17 16 16 15 14 13 13 13 14 13 13 14 15 16 18 18 16 13 11 8 7
11 8 7 8 9 12 13 13 13 13 11 10 9 10 12 15 16 16 16 15 14 12 11 10 10 9 9 8 7 7 7 7 6 6 6 6 5 5 4 3 3 3 2 2 2 2 3 4 6 7 8 9 10 10 10 10 10 11 12 14 16 16 16 17 19 19 18 17 16 16 16 15 14 14 15 14 14 14 15 16 17 18 16 14 12 10 9
12 12 10 9 11 13 14 14 16 17 16 14 14 15 15 16 17 18 17 15 14 12 10 9 9 9 9 8 7 7 7 7 7 7 6 6 5 5 5 5 5 5 4 3 2 2 4 5 7 9 10 11 11 11 11 11 11 11 12 13 15 16 18 19 20 20 20 19 18 18 18 17 16 16 16 15 15 15 15 16 17 17 16 14 12 11 11
11 14 15 14 15 15 15 14 18 21 20 16 15 16 18 19 19 18 17 15 13 11 10 9 8 8 7 6 6 6 6 6 6 6 5 5 5 5 5 5 6 6 5 3 3 4 5 7 9 11 12 13 13 13 13 12 12 13 14 15 15 16 18 20 21 22 22 21 20 19 19 19 19 18 18 17 16 17 17 17 17 17 17 15 13 12 11
9 12 15 17 17 18 18 17 17 20 22 21 18 18 19 20 18 17 16 14 11 8 8 7 5 4 4 4 4 5 5 4 5 4 4 4 5 5 4 5 6 6 4 3 4 6 8 10 12 13 14 13 14 14 14 13 13 13 15 16 17 17 18 21 22 22 22 21 19 18 18 19 20 20 18 17 17 17 17 18 19 19 18 16 14 13 12
9 12 16 18 18 19 19 18 17 18 21 23 21 20 19 19 17 16 14 12 9 7 6 5 4 4 3 3 3 4 4 3 3 3 3 4 5 5 5 6 6 4 4 6 8 10 12 13 13 13 13 14 14 15 15 15 14 12 12 15 17 17 18 20 21 22 21 19 17 18 19 19 19 18 18 18 17 17 16 17 19 19 18 16 15 14 12
12 15 17 18 18 18 19 19 19 19 20 21 21 20 18 16 15 14 12 11 8 6 5 5 4 4 3 2 2 2 2 2 2 3 3 5 5 5 6 7 6 5 6 8 10 11 12 12 12 13 14 15 15 16 15 15 14 12 11 12 14 15 17 18 19 20 21 19 17 17 17 16 16 17 17 17 16 15 15 16 17 17 17 16 15 14 12
15 17 18 17 17 18 20 20 20 19 19 20 20 19 16 14 14 13 12 10 8 6 5 5 4 3 2 2 1 1 1 1 2 3 4 4 3 4 5 6 6 6 7 8 9 10 10 11 12 13 14 15 15 15 14 12 11 10 10 10 12 13 16 17 18 18 19 18 17 16 14 14 15 16 15 16 16 16 16 16 17 17 16 15 15 14 13
17 19 18 17 18 19 21 21 21 20 19 19 19 18 16 14 14 13 12 10 8 6 5 5 3 2 2 1 0 1 2 3 4 4 3 2 1 2 4 5 6 7 7 8 9 9 10 10 11 12 13 14 14 13 11 9 9 10 10 11 11 12 14 15 16 17 17 16 16 15 15 16 17 18 18 19 20 19 18 18 18 17 16 15 14 14 13
19 20 19 19 20 21 21 21 21 20 19 18 17 16 14 13 12 12 11 10 8 7 6 5 3 2 1 0 1 2 4 4 4 4 3 1 0 1 3 5 5 6 6 7 8 8 8 9 9 10 11 12 12 11 10 8 8 8 9 8 8 8 9 10 10 11 12 12 12 12 13 15 17 18 19 20 21 20 20 19 18 16 15 14 14 13 13
20 21 22 23 22 21 22 22 21 20 19 18 16 15 14 13 12 11 10 9 9 8 6 4 3 1 0 2 2 3 3 3 2 2 2 2 1 2 4 5 5 5 6 6 6 6 6 7 7 9 10 10 10 9 7 6 5 4 2 1 2 3 4 5 5 5 4 4 5 7 9 11 13 15 16 17 18 18 18 17 16 15 14 14 13 12 12
19 21 24 24 22 21 22 23 22 21 20 18 15 14 15 14 13 11 9 9 8 7 5 3 2 1 1 2 1 1 1 0 1 2 3 4 4 4 4 5 5 6 6 6 5 5 6 5 6 8 9 10 9 8 7 5 2 0 2 3 3 3 5 7 7 7 8 9 9 10 11 12 13 13 12 11 10 11 12 13 13 13 12 11 11 11 10
20 20 22 22 22 22 23 23 22 21 19 16 14 14 15 14 12 11 10 9 8 7 6 4 3 1 1 1 1 2 3 2 2 2 3 4 4 4 3 4 6 7 7 6 4 4 4 5 6 8 9 9 8 8 7 5 3 2 2 3 4 4 4 4 2 1 2 4 4 4 5 7 7 6 5 6 7 9 11 12 12 12 10 10 10 9 9
22 21 21 23 24 24 24 23 21 18 16 16 16 17 16 14 12 11 10 9 9 8 7 4 3 2 1 1 0 1 2 3 3 1 1 3 4 3 3 4 6 7 7 6 4 3 4 5 6 6 7 7 8 7 5 3 2 1 1 2 4 5 6 4 3 3 4 5 4 3 4 5 5 6 8 10 11 12 12 12 11 11 9 8 7 6 5
23 23 23 24 25 24 22 20 17 15 16 18 19 19 17 14 13 12 11 11 10 9 6 4 3 2 2 2 2 2 1 2 2 1 1 2 3 4 4 4 6 8 8 6 4 3 4 5 6 6 6 6 6 6 4 4 5 6 6 5 3 5 7 8 8 9 9 8 7 7 8 8 9 10 13 14 13 12 11 10 9 8 7 6 6 6 5
23 23 22 23 23 23 22 19 17 17 19 21 21 19 18 16 14 13 12 12 11 9 6 4 3 3 3 3 3 2 3 2 2 2 2 2 2 3 3 3 5 7 9 7 4 3 3 4 5 5 5 6 8 8 7 7 7 9 9 8 6 6 9 11 11 10 9 9 9 9 10 11 11 12 13 12 11 10 9 8 7 6 6 6 6 6 6
24 23 23 23 24 24 23 20 19 20 21 22 21 20 18 16 14 14 13 12 11 10 8 6 4 3 2 2 2 1 1 1 1 1 1 1 0 1 3 4 5 6 8 7 6 5 4 4 4 4 6 9 11 12 12 12 12 11 11 10 10 10 10 10 10 9 8 8 9 9 10 10 10 10 10 9 8 8 7 7 6 6 6 5 5 4 5
25 25 24 23 22 22 21 19 18 19 21 21 22 21 18 15 14 14 14 13 11 10 9 7 5 4 4 3 3 2 1 1 0 1 1 1 1 1 2 3 5 6 7 7 6 4 4 5 5 5 5 6 7 8 9 10 11 11 10 9 9 9 8 7 7 8 8 8 8 8 8 8 8 7 7 6 5 5 5 4 3 3 4 4 4 4 4
Wind_Direction
177 173 178 155 109 79 33 23 16 9 3 9 29 27 333 20 105 94 25 50 52 8 350 354 359 31 56 47 42 47 49 48 51 67 85 88 97 130 165 201 186 157 152 155 165 161 152 151 156 160 166 173 177 178 180 186 193 199 204 206 207 209 210 212 216 220 224 229 230 231 231 230 229 228 229 233 235 236 238 239 239 240 240 243 245 245 244
176 222 221 135 116 98 45 17 7 24 25 16 23 10 350 38 86 99 62 56 47 17 347 344 1 35 54 49 43 46 48 52 60 66 79 139 204 204 180 197 189 141 133 125 131 145 151 159 163 161 165 174 180 181 182 185 190 195 198 200 205 209 211 213 216 217 226 240 245 243 238 233 233 235 237 238 241 242 243 244 244 244 244 244 245 246 247
152 287 312 115 115 110 89 7 351 33 42 21 22 14 358 22 51 56 54 51 43 19 344 342 9 35 44 42 37 41 45 36 50 82 84 268 268 303 349 273 164 117 134 135 135 156 168 172 171 165 166 173 176 177 180 185 189 191 193 196 200 206 209 212 214 214 218 229 248 277 288 260 240 241 244 245 247 247 248 249 249 247 246 244 244 244 245
184 248 198 142 108 99 93 22 4 27 38 33 28 20 9 2 330 336 49 50 18 347 340 346 14 33 37 37 31 35 46 26 14 109 113 57 338 1 1 332 2 85 141 143 146 167 173 171 168 166 164 163 167 173 178 184 187 188 192 196 197 202 208 210 211 210 214 219 222 232 264 282 251 239 234 238 250 251 248 248 248 247 246 244 243 243 243
231 250 214 180 58 42 25 332 339 360 77 108 137 39 22 2 318 296 91 165 249 295 14 24 28 33 37 37 33 34 35 19 348 351 79 69 29 24 17 1 19 47 95 133 168 185 174 164 159 160 163 164 170 177 176 175 177 177 182 189 188 192 198 201 203 206 212 217 215 217 223 226 235 238 225 221 239 253 251 249 246 243 242 242 241 241 240
243 274 298 81 29 339 237 269 301 213 134 126 132 77 27 2 350 242 232 251 250 114 84 72 48 38 44 39 35 35 33 38 35 26 41 52 37 34 36 34 37 33 68 130 167 171 130 135 137 141 151 157 162 170 168 162 160 161 164 165 156 156 171 183 189 194 201 204 201 204 210 210 217 230 225 219 223 229 240 254 251 243 237 235 235 236 236
205 312 57 79 244 245 246 296 324 145 127 120 119 109 72 22 359 315 282 296 262 109 90 85 74 58 63 54 38 32 37 54 64 47 36 35 38 47 43 38 38 25 46 115 149 127 103 112 117 121 132 143 148 152 149 144 140 140 145 151 154 160 167 168 176 188 198 197 187 188 200 207 212 223 227 226 227 230 231 237 250 255 247 235 228 227 230
309 44 71 148 239 270 313 335 320 279 335 76 94 96 65 31 335 280 309 332 57 109 94 95 128 169 71 60 38 21 37 61 70 63 47 37 39 46 35 17 12 24 49 90 125 126 120 123 123 122 128 136 140 140 139 141 142 138 136 141 151 162 162 153 161 185 216 232 218 203 206 212 218 227 231 231 236 242 241 236 237 251 263 256 234 224 224
133 96 100 298 315 316 320 308 220 208 257 252 165 228 276 266 242 233 256 339 65 96 62 357 350 299 16 51 28 357 12 55 76 74 59 48 43 42 47 49 47 52 67 87 102 105 107 115 124 129 130 129 127 127 129 135 142 148 154 158 160 162 162 161 167 175 196 223 224 209 203 210 223 229 228 230 231 230 241 244 225 218 236 249 243 232 225
105 94 78 19 3 266 246 254 259 256 249 223 147 103 301 253 200 199 198 187 42 38 344 334 337 345 32 44 355 338 351 19 78 87 70 57 49 41 46 59 64 65 72 79 84 85 81 82 94 111 121 125 125 125 128 130 134 144 159 175 187 196 204 210 203 192 192 205 211 205 201 211 227 230 226 234 237 232 243 250 222 202 216 226 226 226 224
99 104 118 159 201 235 235 241 264 289 282 220 95 58 316 254 190 183 184 173 188 245 285 325 2 55 76 72 292 329 347 348 29 78 78 66 62 58 61 67 66 67 74 81 83 84 82 82 90 102 111 115 115 115 122 131 136 138 143 153 166 180 190 190 186 188 193 208 223 229 229 233 242 245 238 235 232 229 233 231 216 211 218 216 210 212 218
154 118 133 196 213 243 229 224 261 288 302 99 83 48 275 239 182 172 174 173 186 192 222 5 46 86 144 178 229 320 358 5 20 49 63 62 62 65 71 80 85 84 82 80 77 77 83 92 101 106 111 110 106 103 109 118 123 122 124 128 132 136 142 139 133 139 151 179 227 255 258 251 254 258 256 246 230 224 219 214 218 227 228 222 222 225 227
150 121 137 253 261 244 223 227 259 273 110 105 120 212 236 209 170 178 171 163 164 145 116 75 73 98 176 143 132 351 29 44 30 40 57 64 66 67 68 77 87 91 90 86 81 77 82 93 101 107 111 105 99 103 111 110 111 115 119 122 123 121 118 112 107 105 100 97 101 90 47 261 258 257 260 264 264 262 234 198 217 230 227 220 225 229 232
123 125 118 319 286 241 228 247 263 217 122 164 212 218 209 152 146 156 134 129 134 122 105 100 109 101 67 88 90 33 49 62 31 37 63 74 77 79 80 79 83 87 89 92 92 89 89 94 97 104 107 101 93 95 98 93 93 106 116 120 119 116 111 105 101 94 85 79 88 100 97 111 154 144 129 97 83 69 81 121 172 200 202 199 208 210 213
121 76 62 37 254 246 262 284 275 149 161 209 218 174 72 97 118 111 89 93 116 119 106 93 90 76 58 59 67 61 70 85 71 70 87 92 89 92 94 93 94 95 90 89 93 96 100 101 98 96 96 94 90 88 83 78 87 102 108 110 113 112 111 111 113 113 107 102 105 104 102 110 112 98 89 83 83 89 101 117 142 164 168 172 180 163 132
123 101 152 206 215 252 279 205 180 207 225 219 194 106 71 66 89 97 87 79 94 116 114 101 85 76 68 62 66 72 82 96 97 100 107 105 101 102 105 108 110 107 102 98 99 105 113 116 112 106 99 92 90 90 87 80 89 103 109 109 109 107 105 109 119 128 123 110 100 94 92 91 84 76 74 76 80 89 101 113 125 135 138 146 148 119 102
165 174 209 224 223 264 303 127 164 224 18 49 104 105 90 71 85 107 106 99 92 98 108 103 88 81 81 75 76 88 99 106 115 121 115 108 107 107 108 111 111 108 106 104 102 103 110 114 113 111 107 100 93 93 101 103 99 104 110 111 113 113 112 119 130 133 124 110 100 93 86 79 77 77 78 81 84 90 100 110 118 121 121 127 124 105 95
172 156 211 252 49 9 2 18 25 48 68 66 77 92 86 72 99 118 127 131 129 121 113 102 90 94 100 86 84 101 110 108 117 120 112 108 108 106 103 105 106 105 103 100 97 95 95 98 102 101 101 99 95 95 106 111 112 119 123 123 124 120 118 128 138 138 128 113 101 93 88 85 82 82 83 87 92 97 102 108 114 117 117 119 116 106 97
80 48 287 300 18 53 48 47 36 46 59 51 57 89 100 92 102 120 132 132 129 127 118 110 108 114 113 95 85 90 99 103 113 119 116 113 112 111 109 109 109 106 101 95 92 90 88 88 92 92 90 88 87 91 98 102 110 124 128 131 137 136 131 135 139 136 127 117 106 95 90 90 91 90 91 98 107 110 109 109 112 116 117 116 113 109 105
115 217 253 295 360 18 34 58 73 83 79 67 59 78 98 87 83 98 119 124 129 134 121 117 118 114 103 102 100 91 91 102 115 124 126 126 124 123 124 123 121 116 109 104 100 97 95 94 93 93 89 81 76 81 87 87 99 116 114 112 134 152 157 154 147 140 131 122 115 108 103 101 100 99 102 111 121 123 121 120 122 125 124 122 119 115 109
77 211 233 3 27 11 9 29 80 145 115 99 79 72 83 86 84 84 83 92 132 147 141 126 116 109 105 111 109 104 102 109 119 131 137 137 137 139 139 137 133 127 123 122 118 111 109 109 105 98 91 82 77 84 87 82 89 112 111 105 124 154 167 168 162 153 143 130 117 112 114 114 109 103 101 105 112 116 119 126 130 132 131 125 119 116 112
162 213 200 171 133 108 264 191 184 193 141 110 98 87 87 91 99 102 89 71 80 109 125 132 124 117 121 122 110 104 106 116 125 135 140 140 142 147 148 147 144 137 132 130 127 123 121 118 112 103 89 79 78 80 80 80 79 99 130 128 129 151 167 172 169 160 149 138 126 119 123 129 125 114 105 102 104 106 106 108 114 121 127 123 121 127 142
211 214 195 170 134 140 200 198 185 193 162 115 110 114 108 103 112 114 106 98 86 75 83 116 127 127 129 128 117 101 94 110 122 133 142 145 145 151 156 156 153 149 144 141 136 132 130 125 114 101 82 71 74 78 72 69 72 80 140 159 152 160 170 170 166 160 154 146 135 125 121 126 132 129 121 113 108 106 103 102 104 106 109 110 112 117 128
207 202 183 172 145 148 180 188 179 179 159 125 117 118 111 106 109 104 100 104 111 99 70 78 111 128 132 127 119 110 106 114 117 123 135 142 143 150 157 159 158 157 157 156 150 139 134 130 119 94 64 54 57 56 50 66 95 101 122 156 157 161 168 170 166 162 159 154 145 136 130 128 128 130 129 123 116 111 109 107 104 97 88 81 76 70 64
170 168 160 158 150 141 143 143 138 148 149 136 125 128 133 126 114 106 99 93 104 112 99 71 84 112 122 116 113 115 115 115 118 122 127 133 141 151 160 164 165 163 162 164 165 163 169 200 303 321 338 352 1 8 10 16 79 120 146 175 170 166 168 171 172 171 170 166 159 153 151 146 140 136 135 131 126 121 117 110 99 90 84 78 73 67 61
130 127 111 88 82 111 117 107 104 150 161 141 126 131 136 126 114 109 109 108 106 106 102 90 84 91 97 95 95 100 99 92 95 102 100 93 93 92 48 282 249 225 203 192 187 189 208 232 254 279 302 319 326 332 343 350 351 348 314 207 193 188 186 186 188 190 191 190 185 179 174 171 169 164 157 148 142 139 135 127 113 99 90 84 78 70 63
125 127 115 99 94 146 182 165 153 169 163 138 125 123 121 116 112 107 103 103 103 100 99 98 94 89 89 90 91 92 91 87 81 78 74 68 61 50 38 16 345 321 294 266 241 226 223 225 240 263 281 297 307 311 316 328 338 340 325 262 237 222 209 208 209 208 207 208 205 200 198 201 204 202 193 183 175 168 161 152 139 122 107 95 82 70 66
148 147 138 145 162 182 199 173 146 144 140 128 126 126 118 111 110 107 101 100 102 99 97 100 101 97 92 91 90 89 87 83 79 75 70 64 58 50 44 36 26 12 351 329 307 276 254 244 245 257 269 276 282 290 295 299 311 324 316 278 256 251 246 243 236 224 217 215 212 211 210 209 212 215 215 210 202 193 182 173 164 148 128 113 95 78 72
159 145 106 130 147 142 132 126 125 121 114 117 123 125 121 111 101 97 101 105 104 98 93 98 105 107 106 103 99 94 89 84 80 75 67 56 45 38 32 30 29 27 20 9 355 339 319 290 270 268 271 270 265 268 276 279 281 288 291 275 255 248 251 259 258 246 234 231 231 230 226 214 204 206 214 219 216 208 195 185 180 170 149 134 119 98 85
161 115 93 100 117 123 124 130 131 123 116 118 119 118 120 117 106 95 93 95 98 100 99 99 102 104 106 108 108 105 103 100 93 86 76 58 40 27 16 10 11 16 22 24 19 10 1 345 319 302 296 289 276 264 260 262 265 268 270 266 256 246 244 249 252 250 248 252 255 250 238 226 213 203 205 215 220 214 203 194 190 184 170 157 147 126 102
123 103 113 121 130 133 134 133 130 126 123 120 116 112 114 114 112 112 109 100 100 107 108 104 102 100 99 100 100 100 103 102 97 90 80 67 56 42 26 17 15 11 10 14 16 13 7 2 354 341 327 317 306 285 259 247 247 252 254 255 252 245 240 238 239 244 250 256 259 252 236 225 218 210 206 212 219 215 205 199 197 196 188 177 169 154 123
107 101 113 123 126 125 125 128 129 130 129 129 130 134 135 129 126 128 128 118 114 114 111 106 104 102 99 95 91 91 91 86 80 72 62 57 60 56 45 46 52 44 30 24 22 17 11 9 6 358 347 334 322 308 278 250 241 242 246 251 252 246 240 235 233 238 246 246 241 237 229 222 219 217 213 214 217 214 207 202 201 201 195 186 180 176 169
121 121 136 145 140 135 142 155 148 139 139 139 139 140 136 131 128 128 127 122 116 112 108 105 103 103 101 96 88 85 81 74 63 46 40 49 65 63 55 52 48 41 38 37 33 27 20 13 5 356 350 342 331 320 299 270 254 249 249 252 254 249 243 239 236 238 240 234 225 225 231 230 228 226 222 216 212 210 207 204 201 198 194 186 181 179 178
157 169 175 173 165 157 160 166 155 138 124 112 119 127 128 126 126 126 125 119 111 107 108 107 104 102 99 91 81 72 65 60 45 30 30 41 51 45 40 35 24 20 20 13 7 5 360 356 352 347 344 340 334 328 317 295 278 268 263 260 257 251 245 240 236 234 235 232 229 229 236 242 240 234 225 215 205 201 200 200 197 193 186 179 176 175 168
162 157 161 165 161 153 151 151 148 143 134 117 115 123 125 125 125 122 118 114 110 109 109 105 98 94 88 80 70 61 56 52 40 25 23 26 25 18 14 10 12 22 21 4 355 350 345 348 350 349 345 341 335 331 327 314 295 281 272 266 262 255 246 238 234 230 230 232 232 231 233 238 239 233 222 211 202 198 196 195 194 189 182 176 173 167 154
148 132 134 150 152 147 146 147 147 146 141 136 135 129 123 122 121 116 111 109 107 104 100 92 83 77 71 66 63 62 61 58 50 41 35 29 25 20 15 14 19 22 17 10 14 13 360 352 350 346 341 335 329 324 322 319 309 295 282 271 265 258 249 241 235 231 229 231 234 234 232 229 227 223 216 206 199 196 195 192 190 186 183 179 174 164 152
155 147 143 145 147 146 147 149 149 144 135 131 133 130 123 118 115 112 109 105 100 96 89 81 76 72 69 70 73 72 67 61 53 47 42 35 28 23 20 23 26 21 13 8 6 2 354 348 344 339 333 326 320 314 311 310 307 300 292 281 269 261 255 249 243 240 238 237 236 234 230 222 213 208 205 200 196 193 192 192 189 186 184 182 176 167 160
149 144 140 142 142 139 138 143 146 140 130 122 120 121 120 118 114 109 105 100 95 92 87 80 78 77 72 70 68 61 54 46 36 28 26 26 25 25 26 23 12 358 348 336 323 332 340 339 333 327 322 319 315 310 305 302 296 290 287 283 274 267 262 257 252 249 245 239 234 230 226 219 209 201 197 195 193 190 189 191 190 186 182 179 175 171 169
126 127 131 133 132 129 128 131 135 134 129 124 119 118 120 119 115 110 106 100 94 91 86 80 78 73 57 45 37 28 23 18 14 17 26 30 25 19 14 6 354 341 326 307 306 317 322 320 315 312 310 310 309 305 301 300 297 290 284 279 274 270 265 261 256 251 244 237 231 227 220 212 206 200 194 189 186 185 187 190 188 183 180 177 175 173 172
127 129 130 128 127 128 127 126 126 127 129 129 128 126 126 125 120 114 110 104 96 89 85 84 83 75 59 36 15 12 14 18 24 27 21 10 3 353 342 339 339 327 302 296 303 308 309 308 307 305 303 303 305 304 302 301 300 295 287 278 275 272 268 264 258 249 240 233 227 219 212 205 200 193 185 178 174 173 175 179 180 179 178 176 174 174 176
135 135 132 130 130 130 129 127 127 129 132 134 134 135 134 132 126 120 116 113 109 103 97 95 94 86 76 60 37 42 57 59 43 17 355 348 347 339 329 329 330 319 301 301 306 310 311 311 311 307 305 304 304 306 306 304 301 298 291 283 277 273 270 265 258 248 238 230 218 207 200 193 183 178 175 172 169 166 168 172 176 178 178 176 176 179 182
137 135 130 128 129 129 129 129 130 130 132 137 138 138 137 135 130 126 125 125 124 120 113 109 106 104 103 107 115 123 123 341 332 329 328 331 331 322 318 322 328 325 318 317 319 320 319 319 317 315 315 315 312 309 309 307 305 305 301 291 282 277 272 265 255 245 237 228 218 211 207 199 193 191 191 187 183 182 183 181 179 179 178 177 179 183 183
141 137 132 131 133 133 133 133 132 131 134 140 141 139 138 137 133 130 131 132 132 133 133 131 126 122 120 126 194 286 303 310 317 322 324 315 295 298 312 320 325 327 326 327 329 329 330 332 332 331 333 333 329 327 326 319 308 300 293 285 280 277 271 262 253 246 242 237 232 231 229 222 215 210 202 191 186 185 184 180 176 173 173 172 173 175 174
143 140 137 137 139 138 136 135 135 135 139 142 143 141 140 139 138 138 139 140 140 142 143 141 135 125 99 351 311 311 315 317 320 326 327 313 238 338 339 334 332 335 337 336 339 346 354 355 350 345 345 345 344 344 346 344 330 309 293 282 274 265 256 251 248 246 244 243 239 232 224 217 209 200 189 181 177 175 172 171 171 170 169 167 166 166 166
145 144 142 142 142 142 141 141 142 142 142 143 145 147 148 147 146 147 148 148 146 145 142 138 136 139 313 316 312 309 312 318 329 343 351 4 29 22 8 358 350 348 347 346 351 6 14 7 357 353 354 355 355 354 354 359 6 5 355 136 137 145 148 135 116 112 125 143 156 162 166 172 174 170 164 163 162 160 160 163 167 168 166 164 163 163 164
146 146 144 144 145 147 148 147 146 145 143 142 143 149 153 153 151 151 153 152 147 145 146 148 146 155 294 319 318 283 257 224 78 50 40 39 33 20 17 17 9 360 359 1 11 24 23 11 359 356 355 354 355 354 349 345 350 30 163 165 159 151 140 127 104 83 82 92 97 99 107 119 128 130 130 135 144 151 158 164 165 162 161 162 161 160 161
144 143 144 145 146 147 148 147 145 144 144 142 143 149 154 155 153 152 153 152 151 151 154 151 141 127 333 324 293 212 205 190 143 90 56 34 17 11 24 30 19 11 10 13 19 26 13 346 338 344 350 351 351 350 344 330 310 281 234 211 213 213 196 180 173 48 71 95 93 85 99 117 125 127 133 148 161 168 170 167 162 157 157 158 157 155 156
145 146 147 146 145 146 146 146 146 148 151 153 154 155 157 158 157 155 154 156 157 157 153 143 128 106 80 66 99 190 205 208 205 180 61 23 17 28 44 36 19 12 8 3 358 354 344 339 347 5 19 21 14 10 6 356 323 298 273 203 192 193 192 189 186 173 160 156 159 172 175 171 170 172 173 174 174 175 173 168 162 158 158 157 157 161 168
148 147 146 145 146 147 148 148 150 155 159 159 158 158 160 161 160 159 160 161 161 159 153 144 131 109 101 105 106 103 125 185 210 205 91 64 57 52 43 27 13 10 6 359 349 343 353 7 24 38 42 34 26 30 49 83 105 106 96 92 123 165 166 153 144 147 153 156 159 170 179 178 171 167 168 169 170 170 169 167 164 163 166 168 170 176 181
146 144 145 148 151 154 155 157 159 163 164 163 162 163 166 167 166 166 167 166 164 163 160 152 137 119 116 122 120 98 82 84 86 69 64 80 80 55 30 10 2 3 5 8 12 17 24 34 40 47 64 72 69 67 73 87 104 110 104 95 101 136 151 149 144 144 147 149 149 152 159 162 160 158 159 159 158 158 161 163 165 170 175 176 174 175 182
151 152 155 158 160 163 166 168 168 168 169 170 169 169 173 177 176 174 173 172 171 170 168 162 158 160 157 145 135 121 80 62 61 47 39 55 67 357 357 359 1 3 7 17 30 44 69 81 69 71 98 103 92 81 80 88 97 104 106 105 111 125 138 142 142 143 146 151 153 153 154 156 157 155 152 151 152 155 159 162 166 174 182 188 194 200 204
157 159 159 160 162 165 169 171 173 173 175 176 175 175 179 183 179 173 174 182 187 185 179 174 175 186 187 174 164 165 167 145 141 145 130 122 113 5 7 16 14 9 11 22 36 59 105 117 97 87 101 109 99 88 88 91 94 97 103 106 112 123 132 140 151 158 159 160 160 157 152 152 154 153 147 145 150 157 157 157 164 190 215 225 231 232 228